Location: Allison Elementary School
(34.0784°N, 117.7317°W)
Time: 13:36:04
(UTC+00:00)

H-II Stage 2 - Pass Details

Date: 15 November 2019
Orbit: 306 x 28217 km, 28.6° (Epoch: 13 December)

Event Time Altitude Azimuth Distance (km) Brightness Sun altitude
Rises 20:30:10 0° 222° (SW) 27,146 11.2 36.0°
Reaches altitude 10° 01:03:44 10° 238° (WSW) 23,138 11.7 -3.9°
Maximum altitude 02:26:03 57° 176° (S) 2,727 5.2 -20.4°
Enters shadow 02:30:49 28° 109° (ESE) 2,425 4.5 -21.4°
